Regional Weather Roundup
Issued by NWS

Home | Current Version | Previous Version | Graphics & Text | Print | Product List | Glossary On
Versions: 1 2 3 4 5 6 7 8 9 10 11 12 13 14 15 16 17 18 19 20 21 22 23 24 25 26 27 28 29 30 31 32 33 34 35 36 37 38 39 40 41 42 43 44 45 46 47 48 49 50
000
ASUS45 KBOU 260307
RWRCO

WEATHER ROUNDUP FOR COLORADO
NATIONAL WEATHER SERVICE DENVER/BOULDER CO
900 PM MDT THU MAY 25 2017

NOTE: "FAIR" INDICATES FEW OR NO CLOUDS BELOW 12000 FEET WITH NO
SIGNIFICANT WEATHER AND/OR OBSTRUCTIONS TO VISIBILITY.

COZ001>005-013-030-031-260400-
...NORTHWEST COLORADO...

CITY           SKY/WX    TMP DP  RH WIND       PRES   REMARKS
CRAIG          RAIN      47  42  83 SW9G24    29.92R
HAYDEN         CLOUDY    52  39  62 CALM      29.89R
MEEKER         CLOUDY    52  43  71 N13G25    29.89R
RABBIT EARS PA LGT RAIN  34  34 100 N6        30.00R VSB 3/4 WCI  29
STEAMBOAT SPGS CLOUDY    46  42  86 SW3       29.89R
WALDEN           N/A     41  37  87 CALM      29.94R
$$

COZ006>008-011-260400-
...WEST CENTRAL VALLEYS...

CITY           SKY/WX    TMP DP  RH WIND       PRES   REMARKS
GRAND JUNCTION MOCLDY    65  36  34 N23       29.76R
MONTROSE       MOCLDY    66  30  26 NW9       29.80R
EAGLE          MOCLDY    58  35  42 NE3       29.84R
RIFLE          CLOUDY    57  41  55 NW28G54   29.83R
DELTA          CLOUDY    72  29  20 W13G18    29.76R
NUCLA          CLOUDY    66  28  24 W15       29.86R
$$

COZ017>023-064>068-260400-
...SOUTHWEST COLORADO...

CITY           SKY/WX    TMP DP  RH WIND       PRES   REMARKS
DURANGO        FAIR      65  25  22 NW17G28   29.84R
CORTEZ         FAIR      63  34  33 E9        29.78R
PAGOSA SPRINGS FAIR      64  18  17 SW7       29.90R
TELLURIDE      FAIR      51  27  38 CALM      29.99R
WOLF CREEK PAS FAIR      39  23  52 S22G29    30.16R
$$

COZ009-010-012-014-032>034-037-058>063-260400-
...CENTRAL COLORADO...

CITY           SKY/WX    TMP DP  RH WIND       PRES   REMARKS
ASPEN          MOCLDY    49  38  65 S15       29.90R
BUENA VISTA    FAIR      53  33  48 W14       29.94R
COPPER MTN     MOCLDY    37  27  65 SW14G32   30.10R
BERTHOUD PASS  HAZE      28  18  64 W16G24    30.09S VSB<1/4 WCI  17
COTTONWOOD PAS MOCLDY    45  34  65 NW8       30.02R
GUNNISON       FAIR      50  36  58 N10       29.91R
KREMMLING      CLOUDY    50  45  81 CALM      29.92R
LEADVILLE      LGT RAIN  42  32  67 S15       30.03R
MONARCH PASS   MOCLDY    36  28  75 W21G32    30.22R
SALIDA         FAIR      61  28  28 W14G20    29.96R
SUNLIGHT       CLOUDY    39  28  65 NW12G20   30.07R THUNDER
WILKERSON PASS CLOUDY    41  27  56 SW12      30.10R
$$

COZ069>075-260400-
...SAN LUIS VALLEY/SANGRE DE CRISTO MOUNTAINS...

CITY           SKY/WX    TMP DP  RH WIND       PRES   REMARKS
ALAMOSA        FAIR      57  29  34 SW9       29.88R
DEL NORTE      FAIR      56  25  31 W6        29.90R
LA VETA PASS   CLOUDY    46  23  39 SW16      30.15R
SAGUACHE       FAIR      57  28  33 NW14G21   29.91R
$$

COZ035-036-038>040-260400-
...NORTHERN COLORADO FRONT RANGE...

CITY           SKY/WX    TMP DP  RH WIND       PRES   REMARKS
DENVER INTL AP MOCLDY    51  44  77 N8        29.82R
DMNS CITY PARK   N/A     53  44  71 NE3G16    29.82R
AURORA         MOCLDY    50  46  84 N7        29.82F
FRONT RANGE AP NOT AVBL
ERIE MUNI ARPT MOCLDY    52  48  86 SE5       29.78R
BOULDER MUN AP FAIR      54  46  76 S3        29.79S
CENTENNIAL     MOCLDY    53  47  79 E6        29.81S
BROOMFIELD     PTCLDY    54  46  76 MISG      29.81R
FORT COLLINS   LGT RAIN  53  45  74 E3        29.78R
LONGMONT       FAIR      55  47  74 CALM      29.79F
$$

COZ041-046-047-076>085-087-088-260400-
...PIKES PEAK/PALMER DIVIDE AND SOUTHERN FOOTHILLS...

CITY           SKY/WX    TMP DP  RH WIND       PRES   REMARKS
COLO. SPRINGS  MOCLDY    59  44  57 N16       29.81R
A. F. ACADEMY  FAIR      58  44  58 N10       29.84R
SCHRIEVER AFB  MOCLDY    57  45  64 N16G28    29.80R
CHEYENNE MTN   MOCLDY    58  43  57 N14G26    29.80R
ELLICOTT       FAIR     N/A N/A N/A NE17      29.77R
FALCON         FAIR      54  43  66 N12       29.84R
FORT CARSON    NOT AVBL
LIMON          FAIR      49  46  90 NW16      29.79R
MONUMENT HILL  DRIZZLE   46  41  81 NE14G24   29.89R
CANON CITY     NOT AVBL
WALSENBURG     FAIR      68  32  26 N14G21    29.79R
TRINIDAD       FAIR      69  21  16 NW9       29.76R
$$

COZ042>045-048>051-090-091-260400-
...NORTHEAST COLORADO...

CITY           SKY/WX    TMP DP  RH WIND       PRES   REMARKS
GREELEY ARPT   NOT AVBL
AKRON          LGT RAIN  51  47  86 NE9       29.79R
BURLINGTON     FAIR      57  50  77 NE9       29.67R
WRAY           FAIR      61  50  67 W8        29.74R
YUMA           MOCLDY    55  50  82 NW15      29.78R
STERLING       FAIR      54  50  87 S3        29.75R
HOLYOKE        NOT AVBL
FORT MORGAN    FAIR      51  47  88 N3        29.79R
$$

COZ086-089-092>099-260400-
...SOUTHEAST COLORADO...

CITY           SKY/WX    TMP DP  RH WIND       PRES   REMARKS
PUEBLO         FAIR      65  44  46 E7        29.72R
LA JUNTA       FAIR      64  45  49 E12G22    29.67R
LAMAR          FAIR      65  45  48 E17G26    29.63R
SPRINGFIELD      N/A     64  50  60 N30G41    29.67R
$$



USA.gov is the U.S. government's official web portal to all federal, state and local government web resources and services.